SL-14 DEB, 45315

Orbit data source: Space-Track

SL-14 DEB, 45315 is space debris in LEO originally from a launch on Thu, 15 Aug 1991 UTC launched from the Plesetsk Missile And Space Complex (PKMTR). Debris objects in space refer to the collection of defunct objects orbiting the Earth. Examples of debris include non-operational satellites, rocket bodies, and fragments generated from explosions, collisions, or faulty payload assembly.

Loading next visibility...
Identifier
45315, 1991-056BD
Orbit
LEO
Country
Flag of CISCIS
Related business
Manufacturer
Unknown
Mission
Spacecraft
Bus & Motor
Unknown
Mass
Unknown
Launch date (UTC)
1991-08-15 (34 years ago)
Launch vehicle
Unknown
Launch site
Plesetsk Missile And Space Complex (PKMTR)
Object type
Payload
Rocket body
Debris
Shape & HBR
Unknown shape, 0.1 m
Radar Cross Section
Small (<0.1 m²)

Expand to show TLE details & history
Last TLE update: 21 hours ago

TLE from 21 hours ago
0 SL-14 DEB
1 45315U 91056BD  25309.97914079  .00000755  00000-0  19724-2 0  9996
2 45315  82.5581 304.2463 0030071  35.3253 324.9853 13.15395893273264
Epoch: 2025-11-05T23:29Z
TLE epoch observation values (Epoch: 2025-11-05T23:29:57.764Z)
Latitude
-0.00001°
Longitude
-93.68843°
Altitude
1,186.512 km
Speed
7.269 km/s
True Right ascension
20h 16m 59s
True Declination
0° 00' 00"
Sunlit
Object was in daylight at epoch
Visualization orbit readout
Latitude
Unknown
Longitude
Unknown
Altitude
Unknown
Speed
Unknown
Apparent Right ascension
Unknown
Apparent Declination
Unknown
Sunlit
N/A
Visualization observer readout
Local Sidereal Time
16:34:18
Azimuth
Unknown
Elevation
Unknown
Doppler factor
Unknown
Orbital elements
Apogee altitude
1,222.391 km
Perigee altitude
1,176.817 km
Semi-major axis
7,577.741 km
Eccentricity
0.00301
Inclination
82.5581°
RAAN
304.2463°
Arg. of periapsis
35.3253°
True anomaly
324.78697°
Mean anomaly
324.9853°
Eccentric anomaly
324.8862°
Mean motion
3.29029 °/min
Orbital period
109.41 mins
BSTAR
0.0019724
Loading maneuver chart data...
Computing Atmospheric mass density...
Loading historical data...
Loading historical data...
Loading historical data...
Loading historical data...
Loading historical data...
Loading historical data...
Loading historical data...

Documentation

Showing up to 5 results
|